Year,Month,Day,Hour,Minute,Value (Times are PST for windspeed in km/hr)
2017,09,29,00,00,0.60
2017,09,29,00,01,0.40
2017,09,29,00,02,1.90
2017,09,29,00,03,4.00
2017,09,29,00,04,1.70
2017,09,29,00,05,1.00
2017,09,29,00,06,2.70
2017,09,29,00,07,3.90
2017,09,29,00,08,2.30
2017,09,29,00,09,2.60
2017,09,29,00,10,2.60
2017,09,29,00,11,4.30
2017,09,29,00,12,0.80
2017,09,29,00,13,3.10
2017,09,29,00,14,3.70
2017,09,29,00,15,5.40
2017,09,29,00,16,3.70
2017,09,29,00,17,4.30
2017,09,29,00,18,2.80
2017,09,29,00,19,3.60
2017,09,29,00,20,3.00
2017,09,29,00,21,4.50
2017,09,29,00,22,4.00
2017,09,29,00,23,6.80
2017,09,29,00,24,5.60
2017,09,29,00,25,7.30
2017,09,29,00,26,8.60
2017,09,29,00,27,6.10
2017,09,29,00,28,8.30
2017,09,29,00,29,6.60
2017,09,29,00,30,4.20
2017,09,29,00,31,4.30
2017,09,29,00,32,5.10
2017,09,29,00,33,4.10
2017,09,29,00,34,6.10
2017,09,29,00,35,4.30
2017,09,29,00,36,4.70
2017,09,29,00,37,5.10
2017,09,29,00,38,8.40
2017,09,29,00,39,9.00
2017,09,29,00,40,5.00
2017,09,29,00,41,8.30
2017,09,29,00,42,9.40
2017,09,29,00,43,8.10
2017,09,29,00,44,5.30
2017,09,29,00,45,8.10
2017,09,29,00,46,6.60
2017,09,29,00,47,4.30
2017,09,29,00,48,4.30
2017,09,29,00,49,5.90
2017,09,29,00,50,5.00
2017,09,29,00,51,4.80
2017,09,29,00,52,6.00
2017,09,29,00,53,6.30
2017,09,29,00,54,7.60
2017,09,29,00,55,4.40
2017,09,29,00,56,3.40
2017,09,29,00,57,4.70
2017,09,29,00,58,2.50
2017,09,29,00,59,4.10
2017,09,29,01,00,3.40
2017,09,29,01,01,5.30
2017,09,29,01,02,3.40
2017,09,29,01,03,3.20
2017,09,29,01,04,3.90
2017,09,29,01,05,3.80
2017,09,29,01,06,3.60
2017,09,29,01,07,4.50
2017,09,29,01,08,3.90
2017,09,29,01,09,3.10
2017,09,29,01,10,4.40
2017,09,29,01,11,3.50
2017,09,29,01,12,3.10
2017,09,29,01,13,3.40
2017,09,29,01,14,2.70
2017,09,29,01,15,3.60
2017,09,29,01,16,1.90
2017,09,29,01,17,3.20
2017,09,29,01,18,4.30
2017,09,29,01,19,3.40
2017,09,29,01,20,2.50
2017,09,29,01,21,3.30
2017,09,29,01,22,3.60
2017,09,29,01,23,5.70
2017,09,29,01,24,6.40
2017,09,29,01,25,3.80
2017,09,29,01,26,2.70
2017,09,29,01,27,3.20
2017,09,29,01,28,4.70
2017,09,29,01,29,3.40
2017,09,29,01,30,2.20
2017,09,29,01,31,1.90
2017,09,29,01,32,5.00
2017,09,29,01,33,5.10
2017,09,29,01,34,8.00
2017,09,29,01,35,6.50
2017,09,29,01,36,3.40
2017,09,29,01,37,3.80
2017,09,29,01,38,5.80
2017,09,29,01,39,4.70
2017,09,29,01,40,5.80
2017,09,29,01,41,5.30
2017,09,29,01,42,5.00
2017,09,29,01,43,3.10
2017,09,29,01,44,3.10
2017,09,29,01,45,1.60
2017,09,29,01,46,2.10
2017,09,29,01,47,2.00
2017,09,29,01,48,6.20
2017,09,29,01,49,3.50
2017,09,29,01,50,3.80
2017,09,29,01,51,2.20
2017,09,29,01,52,2.00
2017,09,29,01,53,3.10
2017,09,29,01,54,2.70
2017,09,29,01,55,3.20
2017,09,29,01,56,4.80
2017,09,29,01,57,2.70
2017,09,29,01,58,4.20
2017,09,29,01,59,3.20
2017,09,29,02,00,2.90
2017,09,29,02,01,1.80
2017,09,29,02,02,1.50
2017,09,29,02,03,2.50
2017,09,29,02,04,2.60
2017,09,29,02,05,1.60
2017,09,29,02,06,1.50
2017,09,29,02,07,1.60
2017,09,29,02,08,0.80
2017,09,29,02,09,2.30
2017,09,29,02,10,3.40
2017,09,29,02,11,0.50
2017,09,29,02,12,2.30
2017,09,29,02,13,3.70
2017,09,29,02,14,3.20
2017,09,29,02,15,5.10
2017,09,29,02,16,1.50
2017,09,29,02,17,2.60
2017,09,29,02,18,1.50
2017,09,29,02,19,3.10
2017,09,29,02,20,2.10
2017,09,29,02,21,2.20
2017,09,29,02,22,2.60
2017,09,29,02,23,1.90
2017,09,29,02,24,2.00
2017,09,29,02,25,3.00
2017,09,29,02,26,4.30
2017,09,29,02,27,2.70
2017,09,29,02,28,1.20
2017,09,29,02,29,1.90
2017,09,29,02,30,2.30
2017,09,29,02,31,4.00
2017,09,29,02,32,3.00
2017,09,29,02,33,2.50
2017,09,29,02,34,2.30
2017,09,29,02,35,2.10
2017,09,29,02,36,2.40
2017,09,29,02,37,0.70
2017,09,29,02,38,0.90
2017,09,29,02,39,0.00
2017,09,29,02,40,0.60
2017,09,29,02,41,1.80
2017,09,29,02,42,0.20
2017,09,29,02,43,0.00
2017,09,29,02,44,0.00
2017,09,29,02,45,0.30
2017,09,29,02,46,2.40
2017,09,29,02,47,0.10
2017,09,29,02,48,0.80
2017,09,29,02,49,0.70
2017,09,29,02,50,2.60
2017,09,29,02,51,2.40
2017,09,29,02,52,1.50
2017,09,29,02,53,2.50
2017,09,29,02,54,0.80
2017,09,29,02,55,2.30
2017,09,29,02,56,2.40
2017,09,29,02,57,2.30
2017,09,29,02,58,2.10
2017,09,29,02,59,2.20
2017,09,29,03,00,2.50
2017,09,29,03,01,4.70
2017,09,29,03,02,1.90
2017,09,29,03,03,1.60
2017,09,29,03,04,3.10
2017,09,29,03,05,1.80
2017,09,29,03,06,4.70
2017,09,29,03,07,3.50
2017,09,29,03,08,3.90
2017,09,29,03,09,2.20
2017,09,29,03,10,1.50
2017,09,29,03,11,1.40
2017,09,29,03,12,2.50
2017,09,29,03,13,2.40
2017,09,29,03,14,1.70
2017,09,29,03,15,1.30
2017,09,29,03,16,2.30
2017,09,29,03,17,2.00
2017,09,29,03,18,1.40
2017,09,29,03,19,1.30
2017,09,29,03,20,1.00
2017,09,29,03,21,0.20
2017,09,29,03,22,0.00
2017,09,29,03,23,0.00
2017,09,29,03,24,0.00
2017,09,29,03,25,1.10
2017,09,29,03,26,0.50
2017,09,29,03,27,1.10
2017,09,29,03,28,0.00
2017,09,29,03,29,1.40
2017,09,29,03,30,1.50
2017,09,29,03,31,0.20
2017,09,29,03,32,0.60
2017,09,29,03,33,0.90
2017,09,29,03,34,3.80
2017,09,29,03,35,2.10
2017,09,29,03,36,2.40
2017,09,29,03,37,2.70
2017,09,29,03,38,2.00
2017,09,29,03,39,1.10
2017,09,29,03,40,0.20
2017,09,29,03,41,0.00
2017,09,29,03,42,0.00
2017,09,29,03,43,0.00
2017,09,29,03,44,0.00
2017,09,29,03,45,0.00
2017,09,29,03,46,0.00
2017,09,29,03,47,0.00
2017,09,29,03,48,0.00
2017,09,29,03,49,0.00
2017,09,29,03,50,0.00
2017,09,29,03,51,0.00
2017,09,29,03,52,0.00
2017,09,29,03,53,0.00
2017,09,29,03,54,0.00
2017,09,29,03,55,0.00
2017,09,29,03,56,0.00
2017,09,29,03,57,0.00
2017,09,29,03,58,0.00
2017,09,29,03,59,0.00
2017,09,29,04,00,0.00
2017,09,29,04,01,0.00
2017,09,29,04,02,0.00
2017,09,29,04,03,0.00
2017,09,29,04,04,0.30
2017,09,29,04,05,0.00
2017,09,29,04,06,0.10
2017,09,29,04,07,0.20
2017,09,29,04,08,0.20
2017,09,29,04,09,2.30
2017,09,29,04,10,1.40
2017,09,29,04,11,0.00
2017,09,29,04,12,0.60
2017,09,29,04,13,1.50
2017,09,29,04,14,1.30
2017,09,29,04,15,1.10
2017,09,29,04,16,2.10
2017,09,29,04,17,1.10
2017,09,29,04,18,0.80
2017,09,29,04,19,0.50
2017,09,29,04,20,2.30
2017,09,29,04,21,0.50
2017,09,29,04,22,3.50
2017,09,29,04,23,3.50
2017,09,29,04,24,5.10
2017,09,29,04,25,2.30
2017,09,29,04,26,2.00
2017,09,29,04,27,1.70
2017,09,29,04,28,1.20
2017,09,29,04,29,2.40
2017,09,29,04,30,2.60
2017,09,29,04,31,2.30
2017,09,29,04,32,3.20
2017,09,29,04,33,6.30
2017,09,29,04,34,2.80
2017,09,29,04,35,2.20
2017,09,29,04,36,4.00
2017,09,29,04,37,3.30
2017,09,29,04,38,4.60
2017,09,29,04,39,5.80
2017,09,29,04,40,4.80
2017,09,29,04,41,4.10
2017,09,29,04,42,6.40
2017,09,29,04,43,3.20
2017,09,29,04,44,1.30
2017,09,29,04,45,1.10
2017,09,29,04,46,0.10
2017,09,29,04,47,0.00
2017,09,29,04,48,1.10
2017,09,29,04,49,1.40
2017,09,29,04,50,0.00
2017,09,29,04,51,0.40
2017,09,29,04,52,2.10
2017,09,29,04,53,1.00
2017,09,29,04,54,2.00
2017,09,29,04,55,0.70
2017,09,29,04,56,1.00
2017,09,29,04,57,0.20
2017,09,29,04,58,1.00
2017,09,29,04,59,0.60
2017,09,29,05,00,0.60
2017,09,29,05,01,0.30
2017,09,29,05,02,0.30
2017,09,29,05,03,1.30
2017,09,29,05,04,1.90
2017,09,29,05,05,2.50
2017,09,29,05,06,2.50
2017,09,29,05,07,2.20
2017,09,29,05,08,0.60
2017,09,29,05,09,0.10
2017,09,29,05,10,0.60
2017,09,29,05,11,1.10
2017,09,29,05,12,2.10
2017,09,29,05,13,2.50
2017,09,29,05,14,4.00
2017,09,29,05,15,3.60
2017,09,29,05,16,2.60
2017,09,29,05,17,2.20
2017,09,29,05,18,1.60
2017,09,29,05,19,1.80
2017,09,29,05,20,1.40
2017,09,29,05,21,1.90
2017,09,29,05,22,1.00
2017,09,29,05,23,2.20
2017,09,29,05,24,1.50
2017,09,29,05,25,2.90
2017,09,29,05,26,3.50
2017,09,29,05,27,3.90
2017,09,29,05,28,3.40
2017,09,29,05,29,2.50
2017,09,29,05,30,2.60
2017,09,29,05,31,3.00
2017,09,29,05,32,4.20
2017,09,29,05,33,2.30
2017,09,29,05,34,3.70
2017,09,29,05,35,1.90
2017,09,29,05,36,0.40
2017,09,29,05,37,1.00
2017,09,29,05,38,0.00
2017,09,29,05,39,0.10
2017,09,29,05,40,0.00
2017,09,29,05,41,0.00
2017,09,29,05,42,0.00
2017,09,29,05,43,0.00
2017,09,29,05,44,0.20
2017,09,29,05,45,0.00
2017,09,29,05,46,0.00
2017,09,29,05,47,0.00
2017,09,29,05,48,0.00
2017,09,29,05,49,0.00
2017,09,29,05,50,0.60
2017,09,29,05,51,0.40
2017,09,29,05,52,0.00
2017,09,29,05,53,0.30
2017,09,29,05,54,1.00
2017,09,29,05,55,0.60
2017,09,29,05,56,0.80
2017,09,29,05,57,1.80
2017,09,29,05,58,1.10
2017,09,29,05,59,2.50
2017,09,29,06,00,1.80
2017,09,29,06,01,2.50
2017,09,29,06,02,1.40
2017,09,29,06,03,2.40
2017,09,29,06,04,3.10
2017,09,29,06,05,1.90
2017,09,29,06,06,3.10
2017,09,29,06,07,2.10
2017,09,29,06,08,2.30
2017,09,29,06,09,2.50
2017,09,29,06,10,2.40
2017,09,29,06,11,4.20
2017,09,29,06,12,2.70
2017,09,29,06,13,3.20
2017,09,29,06,14,2.20
2017,09,29,06,15,2.00
2017,09,29,06,16,3.10
2017,09,29,06,17,0.60
2017,09,29,06,18,1.90
2017,09,29,06,19,0.80
2017,09,29,06,20,1.80
2017,09,29,06,21,0.60
2017,09,29,06,22,0.10
2017,09,29,06,23,0.10
2017,09,29,06,24,0.50
2017,09,29,06,25,1.80
2017,09,29,06,26,3.50
2017,09,29,06,27,2.00
2017,09,29,06,28,2.70
2017,09,29,06,29,3.00
2017,09,29,06,30,2.40
2017,09,29,06,31,1.30
2017,09,29,06,32,0.40
2017,09,29,06,33,1.70
2017,09,29,06,34,1.50
2017,09,29,06,35,1.30
2017,09,29,06,36,0.90
2017,09,29,06,37,0.00
2017,09,29,06,38,0.00
2017,09,29,06,39,0.20
2017,09,29,06,40,0.30
2017,09,29,06,41,0.00
2017,09,29,06,42,0.30
2017,09,29,06,43,0.60
2017,09,29,06,44,0.70
2017,09,29,06,45,0.00
2017,09,29,06,46,0.30
2017,09,29,06,47,0.40
2017,09,29,06,48,0.00
2017,09,29,06,49,0.00
2017,09,29,06,50,0.20
2017,09,29,06,51,0.60
2017,09,29,06,52,0.90
2017,09,29,06,53,0.10
2017,09,29,06,54,0.30
2017,09,29,06,55,0.30
2017,09,29,06,56,0.20
2017,09,29,06,57,0.30
2017,09,29,06,58,1.40
2017,09,29,06,59,0.70
2017,09,29,07,00,0.50
2017,09,29,07,01,0.10
2017,09,29,07,02,0.20
2017,09,29,07,03,0.10
2017,09,29,07,04,0.30
2017,09,29,07,05,0.50
2017,09,29,07,06,0.00
2017,09,29,07,07,0.00
2017,09,29,07,08,0.00
2017,09,29,07,09,1.50
2017,09,29,07,10,0.90
2017,09,29,07,11,1.10
2017,09,29,07,12,1.60
2017,09,29,07,13,2.30
2017,09,29,07,14,1.20
2017,09,29,07,15,1.50
2017,09,29,07,16,1.40
2017,09,29,07,17,1.70
2017,09,29,07,18,1.30
2017,09,29,07,19,2.50
2017,09,29,07,20,0.60
2017,09,29,07,21,2.10
2017,09,29,07,22,3.80
2017,09,29,07,23,4.30
2017,09,29,07,24,2.50
2017,09,29,07,25,1.70
2017,09,29,07,26,1.50
2017,09,29,07,27,1.30
2017,09,29,07,28,0.00
2017,09,29,07,29,0.00
2017,09,29,07,30,0.10
2017,09,29,07,31,0.80
2017,09,29,07,32,0.90
2017,09,29,07,33,1.30
2017,09,29,07,34,1.00
2017,09,29,07,35,0.60
2017,09,29,07,36,0.60
2017,09,29,07,37,2.10
2017,09,29,07,38,3.00
2017,09,29,07,39,3.20
2017,09,29,07,40,2.60
2017,09,29,07,41,2.30
2017,09,29,07,42,1.10
2017,09,29,07,43,1.00
2017,09,29,07,44,0.20
2017,09,29,07,45,0.30
2017,09,29,07,46,0.40
2017,09,29,07,47,3.50
2017,09,29,07,48,1.90
2017,09,29,07,49,2.90
2017,09,29,07,50,1.90
2017,09,29,07,51,1.10
2017,09,29,07,52,2.70
2017,09,29,07,53,2.70
2017,09,29,07,54,2.60
2017,09,29,07,55,2.00
2017,09,29,07,56,1.00
2017,09,29,07,57,1.00
2017,09,29,07,58,0.30
2017,09,29,07,59,1.00
2017,09,29,08,00,1.50
2017,09,29,08,01,0.20
2017,09,29,08,02,2.60
2017,09,29,08,03,2.30
2017,09,29,08,04,1.00
2017,09,29,08,05,1.80
2017,09,29,08,06,3.00
2017,09,29,08,07,3.60
2017,09,29,08,08,3.10
2017,09,29,08,09,3.90
2017,09,29,08,10,6.10
2017,09,29,08,11,2.20
2017,09,29,08,12,1.60
2017,09,29,08,13,3.60
2017,09,29,08,14,2.50
2017,09,29,08,15,0.80
2017,09,29,08,16,1.40
2017,09,29,08,17,1.60
2017,09,29,08,18,2.70
2017,09,29,08,19,3.10
2017,09,29,08,20,2.00
2017,09,29,08,21,3.50
2017,09,29,08,22,3.10
2017,09,29,08,23,2.90
2017,09,29,08,24,2.60
2017,09,29,08,25,2.60
2017,09,29,08,26,1.30
2017,09,29,08,27,3.70
2017,09,29,08,28,3.10
2017,09,29,08,29,3.90
2017,09,29,08,30,3.00
2017,09,29,08,31,3.20
2017,09,29,08,32,3.40
2017,09,29,08,33,4.70
2017,09,29,08,34,2.30
2017,09,29,08,35,4.50
2017,09,29,08,36,3.80
2017,09,29,08,37,3.10
2017,09,29,08,38,5.30
2017,09,29,08,39,2.50
2017,09,29,08,40,3.40
2017,09,29,08,41,6.30
2017,09,29,08,42,3.80
2017,09,29,08,43,4.30
2017,09,29,08,44,4.00
2017,09,29,08,45,2.70
2017,09,29,08,46,0.90
2017,09,29,08,47,1.10
2017,09,29,08,48,2.40
2017,09,29,08,49,4.30
2017,09,29,08,50,3.00
2017,09,29,08,51,0.60
2017,09,29,08,52,3.50
2017,09,29,08,53,4.70
2017,09,29,08,54,7.90
2017,09,29,08,55,6.50
2017,09,29,08,56,4.30
2017,09,29,08,57,5.90
2017,09,29,08,58,2.00
2017,09,29,08,59,5.40
2017,09,29,09,00,7.60
2017,09,29,09,01,7.80
2017,09,29,09,02,8.70
2017,09,29,09,03,6.40
2017,09,29,09,04,8.20
2017,09,29,09,05,7.30
2017,09,29,09,06,7.60
2017,09,29,09,07,6.20
2017,09,29,09,08,5.70
2017,09,29,09,09,7.60
2017,09,29,09,10,10.10
2017,09,29,09,11,8.50
2017,09,29,09,12,8.60
2017,09,29,09,13,6.40
2017,09,29,09,14,8.40
2017,09,29,09,15,7.60
2017,09,29,09,16,8.60
2017,09,29,09,17,8.10
2017,09,29,09,18,7.60
2017,09,29,09,19,7.20
2017,09,29,09,20,3.00
2017,09,29,09,21,5.80
2017,09,29,09,22,8.40
2017,09,29,09,23,8.30
2017,09,29,09,24,8.70
2017,09,29,09,25,7.50
2017,09,29,09,26,7.70
2017,09,29,09,27,8.20
2017,09,29,09,28,7.60
2017,09,29,09,29,8.20
2017,09,29,09,30,6.90
2017,09,29,09,31,7.70
2017,09,29,09,32,8.10
2017,09,29,09,33,7.70
2017,09,29,09,34,6.80
2017,09,29,09,35,7.50
2017,09,29,09,36,8.30
2017,09,29,09,37,8.10
2017,09,29,09,38,10.60
2017,09,29,09,39,9.30
2017,09,29,09,40,9.00
2017,09,29,09,41,9.00
2017,09,29,09,42,8.30
2017,09,29,09,43,8.40
2017,09,29,09,44,8.50
2017,09,29,09,45,6.40
2017,09,29,09,46,7.00
2017,09,29,09,47,6.80
2017,09,29,09,48,4.90
2017,09,29,09,49,6.80
2017,09,29,09,50,6.60
2017,09,29,09,51,6.40
2017,09,29,09,52,8.70
2017,09,29,09,53,7.50
2017,09,29,09,54,3.00
2017,09,29,09,55,3.90
2017,09,29,09,56,5.70
2017,09,29,09,57,5.60
2017,09,29,09,58,6.40
2017,09,29,09,59,6.40
2017,09,29,10,00,4.70
2017,09,29,10,01,5.60
2017,09,29,10,02,7.20
2017,09,29,10,03,4.40
2017,09,29,10,04,4.20
2017,09,29,10,05,5.70
2017,09,29,10,06,6.70
2017,09,29,10,07,7.60
2017,09,29,10,08,8.50
2017,09,29,10,09,5.90
2017,09,29,10,10,4.20
2017,09,29,10,11,4.90
2017,09,29,10,12,5.40
2017,09,29,10,13,4.90
2017,09,29,10,14,7.30
2017,09,29,10,15,6.50
2017,09,29,10,16,7.50
2017,09,29,10,17,6.70
2017,09,29,10,18,5.80
2017,09,29,10,19,7.40
2017,09,29,10,20,9.10
2017,09,29,10,21,6.90
2017,09,29,10,22,6.40
2017,09,29,10,23,10.10
2017,09,29,10,24,8.30
2017,09,29,10,25,7.40
2017,09,29,10,26,7.30
2017,09,29,10,27,7.50
2017,09,29,10,28,8.40
2017,09,29,10,29,5.60
2017,09,29,10,30,8.50
2017,09,29,10,31,5.50
2017,09,29,10,32,5.70
2017,09,29,10,33,3.00
2017,09,29,10,34,0.20
2017,09,29,10,35,1.80
2017,09,29,10,36,3.90
2017,09,29,10,37,2.70
2017,09,29,10,38,2.00
2017,09,29,10,39,3.20
2017,09,29,10,40,6.10
2017,09,29,10,41,5.00
2017,09,29,10,42,2.90
2017,09,29,10,43,2.70
2017,09,29,10,44,4.90
2017,09,29,10,45,3.10
2017,09,29,10,46,2.90
2017,09,29,10,47,1.90
2017,09,29,10,48,2.60
2017,09,29,10,49,2.50
2017,09,29,10,50,2.30
2017,09,29,10,51,4.50
2017,09,29,10,52,1.10
2017,09,29,10,53,0.50
2017,09,29,10,54,0.00
2017,09,29,10,55,0.90
2017,09,29,10,56,2.50
2017,09,29,10,57,2.30
2017,09,29,10,58,2.50
2017,09,29,10,59,0.60
2017,09,29,11,00,0.60
2017,09,29,11,01,2.40
2017,09,29,11,02,1.30
2017,09,29,11,03,0.90
2017,09,29,11,04,0.10
2017,09,29,11,05,0.20
2017,09,29,11,06,1.50
2017,09,29,11,07,0.60
2017,09,29,11,08,4.70
2017,09,29,11,09,4.90
2017,09,29,11,10,5.40
2017,09,29,11,11,1.20
2017,09,29,11,12,1.60
2017,09,29,11,13,3.30
2017,09,29,11,14,1.90
2017,09,29,11,15,1.40
2017,09,29,11,16,1.90
2017,09,29,11,17,2.50
2017,09,29,11,18,0.20
2017,09,29,11,19,0.80
2017,09,29,11,20,1.40
2017,09,29,11,21,0.20
2017,09,29,11,22,0.60
2017,09,29,11,23,2.50
2017,09,29,11,24,5.10
2017,09,29,11,25,4.10
2017,09,29,11,26,6.70
2017,09,29,11,27,4.70
2017,09,29,11,28,4.60
2017,09,29,11,29,3.30
2017,09,29,11,30,1.10
2017,09,29,11,31,3.00
2017,09,29,11,32,0.80
2017,09,29,11,33,0.20
2017,09,29,11,34,0.30
2017,09,29,11,35,0.30
2017,09,29,11,36,2.00
2017,09,29,11,37,1.10
2017,09,29,11,38,0.60
2017,09,29,11,39,0.70
2017,09,29,11,40,0.40
2017,09,29,11,41,0.00
2017,09,29,11,42,1.00
2017,09,29,11,43,5.10
2017,09,29,11,44,2.30
2017,09,29,11,45,2.00
2017,09,29,11,46,2.30
2017,09,29,11,47,1.80
2017,09,29,11,48,2.60
2017,09,29,11,49,3.40
2017,09,29,11,50,1.10
2017,09,29,11,51,0.40
2017,09,29,11,52,1.10
2017,09,29,11,53,1.10
2017,09,29,11,54,0.00
2017,09,29,11,55,0.90
2017,09,29,11,56,1.30
2017,09,29,11,57,0.20
2017,09,29,11,58,0.00
2017,09,29,11,59,0.20
2017,09,29,12,00,1.30
2017,09,29,12,01,0.10
2017,09,29,12,02,0.20
2017,09,29,12,03,0.70
2017,09,29,12,04,0.30
2017,09,29,12,05,0.10
2017,09,29,12,06,0.20
2017,09,29,12,07,0.90
2017,09,29,12,08,0.10
2017,09,29,12,09,0.00
2017,09,29,12,10,1.10
2017,09,29,12,11,0.90
2017,09,29,12,12,0.90
2017,09,29,12,13,0.20
2017,09,29,12,14,0.60
2017,09,29,12,15,1.70
2017,09,29,12,16,1.10
2017,09,29,12,17,0.80
2017,09,29,12,18,0.30
2017,09,29,12,19,0.10
2017,09,29,12,20,0.20
2017,09,29,12,21,0.00
2017,09,29,12,22,0.00
2017,09,29,12,23,1.00
2017,09,29,12,24,1.90
2017,09,29,12,25,3.00
2017,09,29,12,26,3.20
2017,09,29,12,27,3.10
2017,09,29,12,28,4.80
2017,09,29,12,29,4.70
2017,09,29,12,30,2.10
2017,09,29,12,31,1.40
2017,09,29,12,32,4.00
2017,09,29,12,33,2.60
2017,09,29,12,34,1.80
2017,09,29,12,35,2.80
2017,09,29,12,36,2.80
2017,09,29,12,37,4.30
2017,09,29,12,38,1.90
2017,09,29,12,39,2.40
2017,09,29,12,40,0.00
2017,09,29,12,41,3.30
2017,09,29,12,42,1.80
2017,09,29,12,43,1.40
2017,09,29,12,44,1.70
2017,09,29,12,45,0.50
2017,09,29,12,46,1.70
2017,09,29,12,47,1.40
2017,09,29,12,48,2.70
2017,09,29,12,49,2.50
2017,09,29,12,50,0.60
2017,09,29,12,51,0.80
2017,09,29,12,52,1.80
2017,09,29,12,53,1.90
2017,09,29,12,54,2.40
2017,09,29,12,55,0.70
2017,09,29,12,56,4.20
2017,09,29,12,57,2.40
2017,09,29,12,58,3.40
2017,09,29,12,59,1.10
2017,09,29,13,00,2.10
2017,09,29,13,01,1.50
2017,09,29,13,02,3.30
2017,09,29,13,03,3.90
2017,09,29,13,04,2.50
2017,09,29,13,05,0.20
2017,09,29,13,06,2.60
2017,09,29,13,07,1.70
2017,09,29,13,08,2.20
2017,09,29,13,09,2.20
2017,09,29,13,10,6.60
2017,09,29,13,11,5.60
2017,09,29,13,12,5.80
2017,09,29,13,13,5.10
2017,09,29,13,14,3.00
2017,09,29,13,15,3.50
2017,09,29,13,16,1.10
2017,09,29,13,17,0.80
2017,09,29,13,18,1.40
2017,09,29,13,19,7.10
2017,09,29,13,20,5.40
2017,09,29,13,21,4.00
2017,09,29,13,22,3.20
2017,09,29,13,23,2.40
2017,09,29,13,24,1.90
2017,09,29,13,25,2.10
2017,09,29,13,26,0.60
2017,09,29,13,27,1.80
2017,09,29,13,28,4.60
2017,09,29,13,29,2.10
2017,09,29,13,30,1.70
2017,09,29,13,31,2.80
2017,09,29,13,32,5.30
2017,09,29,13,33,5.70
2017,09,29,13,34,3.80
2017,09,29,13,35,6.10
2017,09,29,13,36,4.50
2017,09,29,13,37,1.60
2017,09,29,13,38,3.10
2017,09,29,13,39,3.00
2017,09,29,13,40,3.20
2017,09,29,13,41,6.80
2017,09,29,13,42,4.80
2017,09,29,13,43,3.70
2017,09,29,13,44,1.50
2017,09,29,13,45,1.70
2017,09,29,13,46,1.90
2017,09,29,13,47,1.50
2017,09,29,13,48,3.00
2017,09,29,13,49,4.30
2017,09,29,13,50,7.70
2017,09,29,13,51,7.40
2017,09,29,13,52,5.40
2017,09,29,13,53,3.90
2017,09,29,13,54,4.30
2017,09,29,13,55,1.50
2017,09,29,13,56,1.10
2017,09,29,13,57,6.10
2017,09,29,13,58,5.10
2017,09,29,13,59,0.30
2017,09,29,14,00,3.50
2017,09,29,14,01,1.90
2017,09,29,14,02,2.20
2017,09,29,14,03,2.40
2017,09,29,14,04,0.90
2017,09,29,14,05,1.40
2017,09,29,14,06,2.70
2017,09,29,14,07,1.30
2017,09,29,14,08,2.20
2017,09,29,14,09,2.10
2017,09,29,14,10,7.00
2017,09,29,14,11,8.70
2017,09,29,14,12,5.70
2017,09,29,14,13,6.70
2017,09,29,14,14,6.70
2017,09,29,14,15,8.30
2017,09,29,14,16,6.00
2017,09,29,14,17,9.70
2017,09,29,14,18,6.70
2017,09,29,14,19,9.10
2017,09,29,14,20,12.30
2017,09,29,14,21,14.00
2017,09,29,14,22,10.60
2017,09,29,14,23,11.40
2017,09,29,14,24,8.80
2017,09,29,14,25,6.80
2017,09,29,14,26,7.20
2017,09,29,14,27,8.90
2017,09,29,14,28,9.10
2017,09,29,14,29,10.80
2017,09,29,14,30,9.50
2017,09,29,14,31,10.30
2017,09,29,14,32,8.10
2017,09,29,14,33,8.30
2017,09,29,14,34,12.50
2017,09,29,14,35,12.60
2017,09,29,14,36,13.00
2017,09,29,14,37,15.10
2017,09,29,14,38,12.30
2017,09,29,14,39,19.60
2017,09,29,14,40,15.70
2017,09,29,14,41,8.00
2017,09,29,14,42,10.90
2017,09,29,14,43,13.40
2017,09,29,14,44,16.70
2017,09,29,14,45,10.60
2017,09,29,14,46,11.10
2017,09,29,14,47,9.00
2017,09,29,14,48,8.60
2017,09,29,14,49,13.80
2017,09,29,14,50,16.00
2017,09,29,14,51,19.30
2017,09,29,14,52,13.00
2017,09,29,14,53,13.40
2017,09,29,14,54,9.00
2017,09,29,14,55,12.00
2017,09,29,14,56,17.30
2017,09,29,14,57,17.50
2017,09,29,14,58,17.50
2017,09,29,14,59,16.90
2017,09,29,15,00,15.50
2017,09,29,15,01,18.30
2017,09,29,15,02,14.60
2017,09,29,15,03,15.30
2017,09,29,15,04,11.10
2017,09,29,15,05,7.00
2017,09,29,15,06,14.60
2017,09,29,15,07,16.20
2017,09,29,15,08,14.60
2017,09,29,15,09,19.80
2017,09,29,15,10,15.70
2017,09,29,15,11,23.20
2017,09,29,15,12,16.50
2017,09,29,15,13,21.60
2017,09,29,15,14,21.70
2017,09,29,15,15,16.30
2017,09,29,15,16,15.90
2017,09,29,15,17,12.80
2017,09,29,15,18,11.90
2017,09,29,15,19,10.00
2017,09,29,15,20,9.80
2017,09,29,15,21,12.70
2017,09,29,15,22,12.20
2017,09,29,15,23,15.10
2017,09,29,15,24,10.40
2017,09,29,15,25,16.40
2017,09,29,15,26,14.20
2017,09,29,15,27,16.90
2017,09,29,15,28,20.00
2017,09,29,15,29,12.40
2017,09,29,15,30,10.80
2017,09,29,15,31,15.10
2017,09,29,15,32,17.10
2017,09,29,15,33,22.50
2017,09,29,15,34,14.50
2017,09,29,15,35,19.50
2017,09,29,15,36,24.10
2017,09,29,15,37,21.40
2017,09,29,15,38,18.50
2017,09,29,15,39,19.80
2017,09,29,15,40,14.80
2017,09,29,15,41,22.60
2017,09,29,15,42,22.30
2017,09,29,15,43,29.20
2017,09,29,15,44,26.20
2017,09,29,15,45,16.20
2017,09,29,15,46,16.90
2017,09,29,15,47,23.70
2017,09,29,15,48,18.80
2017,09,29,15,49,15.20
2017,09,29,15,50,12.30
2017,09,29,15,51,21.70
2017,09,29,15,52,20.80
2017,09,29,15,53,16.80
2017,09,29,15,54,20.40
2017,09,29,15,55,20.40
2017,09,29,15,56,22.90
2017,09,29,15,57,18.20
2017,09,29,15,58,19.60
2017,09,29,15,59,26.90
2017,09,29,16,00,17.20
2017,09,29,16,01,22.70
2017,09,29,16,02,17.50
2017,09,29,16,03,23.10
2017,09,29,16,04,17.40
2017,09,29,16,05,16.90
2017,09,29,16,06,17.10
2017,09,29,16,07,19.20
2017,09,29,16,08,24.40
2017,09,29,16,09,23.10
2017,09,29,16,10,9.80
2017,09,29,16,11,22.20
2017,09,29,16,12,15.80
2017,09,29,16,13,19.20
2017,09,29,16,14,18.30
2017,09,29,16,15,20.20
2017,09,29,16,16,16.20
2017,09,29,16,17,15.50
2017,09,29,16,18,21.10
2017,09,29,16,19,21.80
2017,09,29,16,20,22.30
2017,09,29,16,21,15.90
2017,09,29,16,22,18.10
2017,09,29,16,23,18.30
2017,09,29,16,24,25.30
2017,09,29,16,25,19.50
2017,09,29,16,26,18.90
2017,09,29,16,27,21.20
2017,09,29,16,28,19.20
2017,09,29,16,29,23.80
2017,09,29,16,30,19.30
2017,09,29,16,31,19.10
2017,09,29,16,32,19.30
2017,09,29,16,33,19.80
2017,09,29,16,34,17.10
2017,09,29,16,35,17.50
2017,09,29,16,36,23.50
2017,09,29,16,37,19.70
2017,09,29,16,38,19.40
2017,09,29,16,39,17.90
2017,09,29,16,40,26.10
2017,09,29,16,41,21.50
2017,09,29,16,42,21.70
2017,09,29,16,43,24.60
2017,09,29,16,44,24.50
2017,09,29,16,45,18.00
2017,09,29,16,46,16.50
2017,09,29,16,47,25.80
2017,09,29,16,48,17.40
2017,09,29,16,49,21.60
2017,09,29,16,50,16.50
2017,09,29,16,51,16.60
2017,09,29,16,52,22.00
2017,09,29,16,53,27.80
2017,09,29,16,54,23.10
2017,09,29,16,55,24.30
2017,09,29,16,56,20.30
2017,09,29,16,57,17.30
2017,09,29,16,58,26.10
2017,09,29,16,59,25.90
2017,09,29,17,00,17.40
2017,09,29,17,01,21.90
2017,09,29,17,02,22.50
2017,09,29,17,03,17.00
2017,09,29,17,04,17.90
2017,09,29,17,05,22.00
2017,09,29,17,06,22.40
2017,09,29,17,07,15.80
2017,09,29,17,08,15.40
2017,09,29,17,09,19.50
2017,09,29,17,10,21.90
2017,09,29,17,11,21.00
2017,09,29,17,12,22.10
2017,09,29,17,13,20.80
2017,09,29,17,14,28.60
2017,09,29,17,15,22.70
2017,09,29,17,16,22.50
2017,09,29,17,17,23.10
2017,09,29,17,18,20.70
2017,09,29,17,19,18.80
2017,09,29,17,20,24.90
2017,09,29,17,21,21.80
2017,09,29,17,22,25.60
2017,09,29,17,23,22.80
2017,09,29,17,24,24.80
2017,09,29,17,25,19.10
2017,09,29,17,26,18.70
2017,09,29,17,27,16.30
2017,09,29,17,28,19.80
2017,09,29,17,29,22.80
2017,09,29,17,30,27.80
2017,09,29,17,31,17.80
2017,09,29,17,32,27.80
2017,09,29,17,33,24.70
2017,09,29,17,34,15.20
2017,09,29,17,35,25.20
2017,09,29,17,36,25.50
2017,09,29,17,37,31.60
2017,09,29,17,38,22.50
2017,09,29,17,39,22.80
2017,09,29,17,40,20.20
2017,09,29,17,41,22.90
2017,09,29,17,42,16.40
2017,09,29,17,43,26.60
2017,09,29,17,44,19.70
2017,09,29,17,45,24.40
2017,09,29,17,46,25.40
2017,09,29,17,47,31.80
2017,09,29,17,48,22.80
2017,09,29,17,49,31.10
2017,09,29,17,50,36.60
2017,09,29,17,51,30.30
2017,09,29,17,52,29.40
2017,09,29,17,53,22.50
2017,09,29,17,54,25.50
2017,09,29,17,55,23.60
2017,09,29,17,56,28.30
2017,09,29,17,57,28.00